Location: St. Louis
(38.6270°N, 90.1994°W)
Time: 21:11:06
(UTC-06:00)

Vanguard 2 - Pass Details

Date: 30 November 2021
Orbit: 553 x 2936 km, 32.9° (Epoch: 21 January)

Event Time Altitude Azimuth Distance (km) Brightness Sun altitude
Rises 17:07:28 0° 268° (W) 3,791 12.6 -5.7°
Reaches altitude 10° 17:09:44 10° 264° (W) 3,072 12.1 -6.1°
Maximum altitude 17:17:25 58° 187° (S) 1,859 9.7 -7.5°
Drops below altitude 10° 17:30:17 10° 114° (ESE) 4,978 11.2 -9.8°
Sets 17:35:00 0° 111° (ESE) 6,289 11.7 -10.7°
